sat.trackr.live / text

‹ back to catalog

STARLINK-4034

NORAD 52700 · 2022-053AW

PAYLOAD ACTIVE UNKNOWN

§ Identity

Operator
Country
US
Launch date
2022-05-18
Launch site
AFETR
Launch vehicle
Mass (kg)
RCS (m²)

Purposes: comms

External: N2YO · Heavens-Above · Gunter

§ Orbital elements

Epoch: 2026-05-25T01:27:44.086752Z

Period
95.44 min
Inclination
53.2143°
Eccentricity
0.0001006
Mean motion
15.08837379 rev/d
Perigee alt
539.1 km
Apogee alt
540.4 km
Semi-major
6,917.9 km
B*
1.1451e-5
RAAN
165.9173°
Arg perigee
72.5850°
Mean anomaly
287.5252°
Rev number
22,262

§ Raw data

STARLINK-40341 52700U 22053AW  26145.06092693 -.00000106  00000+0  11451-4 0  99922 52700  53.2143 165.9173 0001006  72.5850 287.5252 15.08837379222626

JSON: /api/v1/satellites/52700 · /tle

For live sub-satellite position, see the globe view (requires WebGL).

§ Visibility from observer

Set your observer location to see the next 7 days of passes ≥ 10°. The values pass through the URL so the page stays shareable.

No JS? Fill the form by hand. The geolocation button needs JavaScript.